www.pogodaiklimat.ru

Погода и климат >> Архив погоды >> Россия >> Нижегородская область >> Павлово


ПОГОДА в Павлово

  • Прогноз погоды в Павлово
  • Монитор погоды в Павлово
  • Климат города

АРХИВ ПОГОДЫ в Павлово

Время (UTC), дата Ветер
(напр.,м/с)
 
Видим.   Явления Облачность Т
(С)
Тd
(С)
f
(%)
Тe
(С)
Тes
(С)
Комфортность P
(гПа)
Po
(гПа)
Тmin
(С)
Tmax
(С)
R
(мм)
R24
(мм)
S
(см)
03 16.04 штиль 0
{1}
50 км ясно +2.5 -4.9 58 +2 +3 1020.0 1003.5 +1.5 1
06 16.04 СЗ 1-1
{2}
50 км ясно +8.5 -2.5 46 +8 +16 1019.4 1003.3
09 16.04 С 2-5
{5}
50 км ясно +16.1 -3.3 26 +16 +28 опасность
простуды
1018.7 1003.0
12 16.04 З 3-5
{7}
50 км ясно +17.9 -5.7 20 +18 +24 1017.5 1002.0
15 16.04 СЗ 1-1
{7}
50 км 3/0
[Ci fib]
+17.0 -5.7 21 +18 +19 1016.4 1000.9 +18.2
18 16.04 штиль 0
{2}
20 км 5/0
[Ci fib]
+12.3 -5.7 28 +12 +12 1017.3 1001.4
21 16.04 штиль 0
{2}
20 км 4/0
[Ci fib]
+7.7 -3.0 47 +7 +7 1016.8 1000.7
00 17.04 20 км 4/0
[Ci fib]
+7.7 -3.8 44 1016.6 1000.5
03 17.04 штиль 0
{1}
50 км 1/0
[Ci fib]
+6.3 -4.4 46 +6 +7 1016.6 1000.4 +6.0
06 17.04 Ю 1-3
{3}
50 км 1/0
[Ci fib]
+12.9 +1.1 44 +13 +21 1016.1 1000.4
09 17.04 ЮЗ 1-3
{4}
50 км ясно +19.4 -4.4 20 +20 +34 опасность
простуды
1015.7 1000.3
12 17.04 СЗ 3-5
{8}
50 км 6/0
[Ac trans Ci fib]
+20.7 -3.3 20 +21 +25 комфорт 1014.9 999.6
15 17.04 З 2-3
{6}
50 км 8/0
[Ac trans Ci fib]
+18.1 -4.1 22 +19 +19 1014.8 999.3 +21.2
18 17.04 штиль 0
{4}
20 км 6/0
[Ci fib]
+12.9 -2.7 34 +13 +13 1015.6 999.8
21 17.04 ЮВ 1-2
{2}
20 км ясно +9.5 -2.5 43 +10 +10 1015.5 999.5
00 18.04 ЮВ 1-2
{3}
20 км ясно +8.1 -2.5 47 +8 +8 1015.1 999.0
03 18.04 ЮВ 1-4
{4}
50 км 10/0
[As op]
+7.3 -1.7 53 +7 +7 1013.8 997.7 +7.2
06 18.04 штиль 0
{4}
50 км 10/8 300 м
[Frnb As op]
+8.9 +1.3 59 +9 +9 1013.2 997.3
09 18.04 ЮВ 1-2
{2}
30 км слабый дождь 10/3 300 м
[Frnb As op]
+12.3 +3.8 56 +13 +14 1012.0 996.3
12 18.04 В 2-6
{6}
45 км {дождь} 10/3 1000 м
[Sc Ac As]
+12.2 +8.6 79 +11 +13 1010.2 994.5
15 18.04 В 1-5
{7}
50 км 10/6 300 м
[Frnb As op]
+11.4 +5.3 66 +11 +12 1009.4 993.6 +13.7 0.0
18 18.04 В 1-4
{5}
20 км 10/3 300 м
[Frnb As op]
+9.0 +5.0 76 +8 +8 1007.9 992.1
21 18.04 В 1-3
{4}
20 км слабый дождь 10/10 300 м
[Frnb Ns]
+7.5 +5.0 84 +7 +7 1005.6 989.7
00 19.04 СВ 1-3
{6}
20 км слабый дождь 10/10 300 м
[Frnb Ns]
+5.9 +5.0 94 +5 +5 1003.6 987.6
03 19.04 СВ 3-6
{7}
35 км слабый дождь 10/10 300 м
[Frnb Ns]
+4.5 +3.5 93 +1 +1 1002.0 986.0 +4.3 6
06 19.04 СВ 3-7
{9}
28 км слабый дождь 10/10 300 м
[Frnb Ns]
+4.1 +3.4 95 0 0 1001.8 985.7 +3.8
09 19.04 СВ 2-6
{7}
15 км слабый дождь 10/10 300 м
[Frnb Ns]
+5.1 +4.4 95 +2 +2 1001.7 985.7
12 19.04 СВ 3-7
{7}
21 км слабый дождь 10/10 300 м
[Frnb Ns]
+5.9 +5.4 97 +2 +2 1002.6 986.6
15 19.04 СВ 2-5
{7}
10 км дождь 10/10 300 м
[Frnb Ns]
+5.9 +5.7 99 +3 +3 1003.4 987.4 +6.2 8
18 19.04 СВ 2-5
{5}
4000 м слабый дождь 10/10 300 м
[Frnb Ns]
+6.5 +6.4 99 +4 +4 1004.7 988.8
21 19.04 С 1-2
{5}
10 км {дождь} 10/10 1000 м
[Sc]
+5.4 +5.2 99 +4 +4 1005.3 989.3
00 20.04 С 2-3
{4}
10 км {дождь} 10/10 1000 м
[Sc]
+3.2 +1.8 91 0 0 1006.6 990.4
03 20.04 С 2-5
{6}
50 км ясно +3.0 -0.8 76 0 +1 1008.5 992.3 +2.6 5
06 20.04 СВ 3-6
{8}
50 км 3/0
[Cc]
+6.9 -0.7 58 +4 +10 1010.0 994.0
09 20.04 С 4-9
{11}
50 км 4/4 600 м
[Cu hum]
+9.9 -2.2 43 +8 +13 1010.7 994.8
12 20.04 СВ 3-8
{10}
50 км 1/1 600 м
[Cu hum]
+10.5 -4.7 34 +9 +15 1011.2 995.3
15 20.04 СВ 2-6
{9}
50 км 1/1 600 м
[Cu hum]
+9.2 -4.7 37 +8 +9 1011.3 995.4 +10.9
18 20.04 С 1-1
{7}
20 км 8/0
[Ci fib]
+4.4 -6.2 46 +4 +4 1012.2 996.0
21 20.04 штиль 0
{1}
20 км 3/0
[Ci fib]
+2.2 -5.7 56 +2 +2 1011.8 995.4
00 21.04 штиль 0
{1}
20 км ясно +0.8 -6.5 58 0 0 1010.3 993.9
03 21.04 Ю 1-4
{4}
50 км 10/0
[As trans]
+1.7 -4.5 63 0 +1 1007.8 991.5 0.0
06 21.04 Ю 1-5
{5}
50 км 10/0
[As trans]
+5.5 -3.3 53 +5 +8 1005.0 989.0
09 21.04 Ю 3-10
{10}
50 км слабый дождь 10/6 300 м
[Frnb As op]
+4.1 +2.9 92 0 +1 999.8 983.7
12 21.04 Ю 2-7
{11}
50 км {дождь} 10/8 600 м
[Sc As op]
+8.3 +5.0 80 +6 +7 993.0 977.4
15 21.04 Ю 2-6
{10}
50 км 8/0
[Cc]
+11.9 +6.4 69 +11 +12 987.3 971.9 +12.2 4
18 21.04 штиль 0
{12}
4000 м дождь 10/10 300 м
[Frnb Ns]
+10.0 +8.8 92 +9 +9 983.9 968.5
21 21.04 З 5-9
{12}
20 км {дождь} 10/0
[As op]
+8.9 +7.4 90 +5 +5 982.1 966.7
00 22.04 З 4-8
{11}
10 км дождь 10/8 300 м
[Frnb As op]
+7.7 +6.8 94 +4 +4 981.6 966.1
03 22.04 З 5-11
{14}
50 км слабый дождь 10/5 300 м
[Frnb As op]
+2.3 +1.5 94 -3 -3 983.2 967.4 +2.1 14
06 22.04 СЗ 6-13
{14}
9000 м слабый снег {дождь} 10/10 300 м
[Frnb Ns]
-0.2 -0.2 100 -7 -7 987.3 971.2 -0.5
09 22.04 СЗ 6-11
{13}
40 км слабый снег 10/9 300 м
[Frnb As op]
+0.3 -1.7 86 -6 -6 991.2 975.1
12 22.04 СЗ 6-10
{13}
8000 м слабый снег 10/9 300 м
[Frnb As op]
-0.1 -1.3 92 -7 -7 995.4 979.2
15 22.04 СЗ 4-8
{15}
50 км в посл. час крупа {ливн. осадки, снег} 8/6 300 м
[Cb cap Ac As]
-0.4 -1.0 96 -6 -6 998.6 982.4 +2.6 3
18 22.04 СЗ 6-13
{13}
20 км {ливн. осадки, снег} 9/9 300 м
[Cb cap]
-0.3 -3.6 78 -7 -7 1001.1 984.8
21 22.04 СЗ 4-9
{13}
20 км 3/0
[Ac trans]
-1.0 -3.9 81 -7 -7 1002.4 986.1

 

Местоположение метеостанции Павлово (Нижегородская область, Россия): широта 55.95 долгота 43.03 высота над уровнем моря 131 м.

В архиве по умолчанию представлена погода в Павлово за последнюю неделю. Архивные данные за месяц целиком и за предыдущие месяцы, начиная с января 2011 года, Вы можете получить, выбрав интересующий диапазон дат из раскрывающегося списка и нажав кнопку "Ввод!".


*Определитесь, кто Вы:
робот инопланетянин человек

Внимание! Время в таблицах - всемирное. Для получения местного времени необходимо прибавить поправку, которая в Павлово равна 3 ч.

Смотрите также архив погоды в соседних городах и на ближайших метеорологических станциях:

Погода в Нижнем Новгороде аэропорт (Нижегородская область, Россия) (55 км)
Погода в Вязниках (Владимирская область, Россия) (60 км)
Погода в Дальнем Константиново (Нижегородская область, Россия) (68 км)
Погода в Нижнем Новгороде (Нижегородская область, Россия) (70 км)
Погода в Муроме (Владимирская область, Россия) (74 км)
Погода в Арзамасе (Нижегородская область, Россия) (80 км)
Погода в Волжской ГМО (Нижегородская область, Россия) (85 км)
Погода в Выксе (Нижегородская область, Россия) (90 км)
Погода в Коврове (Владимирская область, Россия) (114 км)
Погода в Лысково (Нижегородская область, Россия) (125 км)

Пояснения к столбцам:

Ветер - указаны скорость ветра в м/с - средняя за 10 мин, порывы в срок и между сроками (в фигурных скобках) и направление, откуда дует ветер: С - северный, СВ - северо-восточный, В - восточный, ЮВ - юго-восточный, Ю - южный, ЮЗ - юго-западный, З - западный, СЗ - северо-западный.
Видимость - горизонтальная дальность видимости в метрах или километрах. При видимости от 1 до 10 км при отсутствии осадков обычно наблюдается дымка, при ухудшении видимости до 1 км и менее - туман. В сухую погоду видимость может ухудшаться дымом, пылью или мглою.
Явления - указаны атмосферные явления, наблюдавшиеся в срок или в последний час перед сроком; фигурными скобками обозначены явления, наблюдавшиеся между сроками (за 1-3 часа до срока); квадратными скобками обозначены град или гололедные отложения с указанием их диаметра в мм.
Облачность - указаны через наклонную черту общая и нижняя облачность в баллах и высота нижней границы облаков в метрах; квадратными скобками обозначены формы облаков: Ci - перистые, Cs - перисто-слоистые, Cc - перисто-кучевые, Ac - высококучевые, As - высокослоистые, Sc - слоисто-кучевые, Ns - слоисто-дождевые, Cu - кучевые, Cb - кучево-дождевые. Подробнее классификацию облаков см. в Атласе облаков (PDF).
T - Температура воздуха - температура, измеренная на высоте 2 м над землей.
Td - Температура точки росы - температура, при понижении до которой содержащийся в воздухе водяной пар достигнет насыщения.
f - Относительная влажность воздуха - влажноcть воздуха, измеренная на высоте 2 м над землей.
Te - Эффективная температура - температура, которую ощущает одетый по сезону человек в тени. Характеристика душности погоды. При расчете учитывается влияние влажности воздуха и скорости ветра на теплоощущения человека.
Tes - Эффективная температура на солнце - температура, которую ощущает человек, с поправкой на солнечный нагрев. Характеристика знойности погоды. Зависит от высоты солнца над горизонтом, облачности и скорости ветра. Ночью, в пасмурную погоду, а также при ветре 12 м/с и более поправка равна нулю.
P - Атмосферное давление - приведенное к уровню моря атмосферное давление.
Po - Атмосферное давление - измеренное на уровне метеостанции атмосферное давление.
Tmin - Минимальная температура - минимум температуры воздуха на высоте 2 м над землей.
Tmax - Максимальная температура - максимум температуры воздуха на высоте 2 м над землей.
R - Количество осадков - Количество выпавших осадков за период времени, мм. При наведении курсора мыши на число - период времени, за который выпало указанное количество осадков.
R24 - Количество осадков - Количество выпавших осадков за 24 часа, мм.
S - Снежный покров - Высота снежного покрова, см. При наведении курсора мыши на число - состояние снежного покрова и степень покрытия местности в баллах.